Notices

What's New in latest Release from April 7th, 2021:

- Updated Glossary, including Speed of Maximum Gust, and Total Hourly Precipitation

- Updated national and regional climate services offices contacts and prices information

- Addition of station inventory lists for 1981-2010, 1971-2000, and 1961-1990 Normals.

If you haven't already, please take our survey and provide feedback about our website: https://eccc.sondage-survey.ca/f/LanguageSelection.aspx?s=442ca660-fcf1-47c0-95a9-59707d6fd709

Hourly Data Report for October 26, 2015

IQALUIT CLIMATE
NUNAVUT

63°44'50.000" N
68°32'40.000" W
33.50 m
2402592
71321
XFB

Download Data

Hourly Data (October 2015)
Hourly Data Report for October 26, 2015
TIME
LST
Temp Definition
°C
Dew Point Definition
°C
Rel Hum Definition
%
Precip. Amount Definition
mm

Wind Dir Definition
10's deg

Wind Spd Definition
km/h
Visibility Definition
km
Stn Press Definition
kPa
Hmdx Definition


Wind Chill Definition


Weather Definition


00:00 -13.6 -16.6 78 0.0 7 3   99.29   -16 LegendNANA
01:00 -15.3 -18.4 77 0.0 7 4   99.31   -18 LegendNANA
02:00 -15.5 -19.0 74 0.0 2 4   99.31   -18 LegendNANA
03:00 -16.0 -19.1 77 0.0 35 4   99.32   -19 LegendNANA
04:00 -14.5 -16.8 83 0.0 35 3   99.36   -17 LegendNANA
05:00 -15.3 -17.5 83 0.0 35 6   99.36   -20 LegendNANA
06:00 -15.0 -17.7 80 0.0 3 3   99.37   -17 LegendNANA
07:00 -16.2 -19.1 78 0.0 1 6   99.38   -21 LegendNANA
08:00 -15.0 -17.5 81 0.0 3 7   99.36   -20 LegendNANA
09:00 -8.8 -13.8 67 0.0 20 11   99.34   -14 LegendNANA
10:00 -8.4 -13.3 68 0.0 20 12   99.31   -14 LegendNANA
11:00 -8.3 -13.8 65 0.0 25 16   99.32   -15 LegendNANA
12:00 -8.0 -13.8 63 0.0 21 12   99.30   -13 LegendNANA
13:00 -7.5 -13.1 64 0.0 21 12   99.25   -13 LegendNANA
14:00 -7.9 -12.5 70 0.0 19 5   99.21   -11 LegendNANA
15:00 -7.8 -13.4 64 0.0 20 8   99.16   -12 LegendNANA
16:00 -7.0 -12.3 66 0.0 17 16   99.10   -13 LegendNANA
17:00 -7.1 -9.8 81 0.0 17 19   99.05   -14 LegendNANA
18:00 -7.8 -14.0 61 0.0 23 25   99.05   -16 LegendNANA
19:00 -8.2 -14.4 61 0.0 23 15   99.06   -15 LegendNANA
20:00 -8.8 -14.4 64 0.0 21 14   99.09   -15 LegendNANA
21:00 -8.7 -14.2 64 0.0 20 7   99.06   -13 LegendNANA
22:00 -9.0 -14.4 65 0.0 23 10   99.04   -14 LegendNANA
23:00 -8.7 -14.0 65 0.0 18 11   99.01   -14 LegendNANA

Notes on Data Quality.

Legend

  • E = Estimated
  • M = Missing
  • NA = Not Available*
  • [empty] = Indicates an unobserved value
Date modified: